sat.trackr.live / text

‹ back to catalog

UNKNOWN

NORAD 81371

UNKNOWN UNKNOWN UNKNOWN

§ Identity

Operator
Country
Launch date
Launch site
Launch vehicle
Mass (kg)
RCS (m²)

External: N2YO · Heavens-Above

§ Orbital elements

Epoch: 2026-09-18T14:25:47.703648Z

Period
97.81 min
Inclination
98.8310°
Eccentricity
0.0067292
Mean motion
14.72231651 rev/d
Perigee alt
606.6 km
Apogee alt
701.3 km
Semi-major
7,032.1 km
B*
4.1121e-4
RAAN
26.1482°
Arg perigee
210.5403°
Mean anomaly
149.1876°
Rev number
68,299

§ Raw data

UNKNOWN1 81371U          26261.60124657  .00002626  00000+0  41121-3 0  99952 81371  98.8310  26.1482 0067292 210.5403 149.1876 14.72231651682997

JSON: /api/v1/satellites/81371 · /tle

For live sub-satellite position, see the globe view (requires WebGL).

§ Visibility from observer

Set your observer location to see the next 7 days of passes ≥ 10°. The values pass through the URL so the page stays shareable.

No JS? Fill the form by hand. The geolocation button needs JavaScript.